Location: Barrio Ca�n Bros
(41.4969°N, 1.9218°E)
Time: 04:17:39
(UTC+00:00)

Daily predictions for brighter satellites

Satellite Brightness Start Highest point End
(mag) Time Altitude Azimuth Time Altitude Azimuth Time Altitude Azimuth
ATLAS CENTAUR R/B 4.2 00:07:30 18° WSW 00:11:45 54° NNW 00:25:22 10° NE
Cosmos 1825 3.9 00:13:02 26° ENE 00:13:02 26° ENE 00:15:38 10° NNE
Cosmos 1408 3.5 00:19:18 45° NE 00:19:18 45° NE 00:22:04 10° NNE
Cosmos 1812 Rocket 4.2 00:15:39 10° NNW 00:19:25 45° WNW 00:19:25 45° WNW
Cosmos 990 Rocket 4.5 00:16:15 10° N 00:21:21 54° ENE 00:22:37 43° ESE
SL-16 R/B 3.0 00:19:56 34° WSW 00:21:45 45° WNW 00:27:12 10° NNE
Cosmos 405 Rocket 3.8 00:23:36 37° ENE 00:23:36 37° ENE 00:26:20 10° NNE
Cosmos 2058 4.2 00:24:22 30° E 00:24:22 30° E 00:27:48 10° NNE
USA 229 DEB 3.5 00:22:35 52° SW 00:24:22 89° NW 00:31:10 10° NE
USA 229 3.5 00:22:43 52° SW 00:24:28 90° NNW 00:31:16 10° NE
Cosmos 2237 Rocket 4.5 00:21:43 10° W 00:25:19 17° NW 00:28:56 10° N
X-37B 3.2 00:28:47 17° ENE 00:28:47 17° ENE 00:29:41 10° ENE
Cosmos 2221 4.1 00:23:53 10° NNE 00:27:27 25° ENE 00:28:23 23° E
NOSS 3-1 (C) 3.9 00:31:10 32° W 00:33:19 49° NW 00:39:19 10° NNE
Cosmos 1898 Rocket 3.9 00:29:30 10° NNW 00:34:40 56° ENE 00:36:10 41° ESE
Cosmos 2369 Rocket 2.3 00:31:22 10° NNW 00:37:06 71° ENE 00:38:58 43° SE
SJ 16-02 2.4 00:36:47 10° NW 00:40:01 33° WNW 00:40:01 33° WNW
GP-B 4.3 00:37:56 10° NNW 00:41:49 30° W 00:41:51 30° W
NOSS 3-1 (A) 3.3 00:42:42 49° WSW 00:44:07 69° NW 00:50:17 10° NNE
Cosmos 1825 Rocket 4.1 00:45:41 47° W 00:45:45 47° WNW 00:50:04 10° N
ATLAS 5 CENTAUR R/B 3.1 00:48:04 22° E 00:48:04 22° E 00:50:38 10° ENE
Cosmos 2263 4.4 00:45:05 10° NNW 00:50:45 66° ENE 00:53:06 35° SE
USA 308 3.9 00:53:27 35° ESE 00:53:27 35° ESE 00:56:32 10° ENE
CZ-4 R/B 3.7 00:48:23 10° NNE 00:53:05 77° ESE 00:53:33 69° SSE
Cosmos 1633 4.5 00:53:22 21° E 00:53:22 21° E 00:56:02 10° NE
Helios 1B rocket 4.2 00:50:30 10° NE 00:53:38 21° E 00:54:08 20° ESE
Meteor 2-2 Rocket 4.4 00:51:55 10° N 00:57:58 76° E 01:00:07 42° SSE
Helios 1A 2.9 01:00:06 75° ESE 01:00:21 79° ENE 01:04:33 10° N
Cosmos 468 Rocket 4.3 01:00:57 46° WSW 01:02:00 55° WNW 01:07:08 10° N
Cosmos 1606 3.9 01:00:03 10° N 01:03:36 35° ENE 01:04:12 33° E
SL-16 R/B 3.3 00:59:52 19° SE 01:04:08 48° ENE 01:10:02 10° N
ATLAS 5 CENTAUR R/B 4.4 01:02:52 28° S 01:05:03 29° SSE 01:33:22 10° ESE
USA 305 3.0 01:10:32 62° ESE 01:10:32 62° ESE 01:14:33 10° NE
USA 290 3.9 01:11:15 28° E 01:11:15 28° E 01:13:30 10° NE
Cosmos 1953 Rocket 4.3 01:10:29 38° W 01:10:41 38° WNW 01:14:49 10° N
Cosmos 858 Rocket 4.5 01:07:03 10° NNW 01:12:22 83° ENE 01:14:06 44° SSE
Cosmos 1092 Rocket 4.3 01:11:05 34° SSE 01:13:37 57° E 01:19:37 10° NNE
Lacrosse 4 Rocket 3.4 01:12:18 10° N 01:15:45 25° NE 01:19:09 10° ESE
Cosmos 2098 Rocket 3.4 01:15:09 52° S 01:16:31 89° W 01:21:10 10° N
Cosmos 1763 Rocket 4.2 01:15:44 34° W 01:17:00 40° WNW 01:21:51 10° N
BREEZE-M R/B 2.5 01:18:11 60° SE 01:18:11 60° SE 01:22:14 10° ENE
USA 267 3.6 01:19:19 38° SW 01:19:51 39° SW 01:25:54 10° WNW
Cosmos 1437 Rocket 2.9 01:18:49 10° NNW 01:22:18 56° WNW 01:22:18 56° WNW
Resurs 1-4 Rocket 2.2 01:17:22 10° NNE 01:22:41 68° ESE 01:24:23 43° S
Cosmos 1943 Rocket 3.6 01:25:51 10° NW 01:29:31 21° W 01:29:31 21° W
NOSS 2-2 (D) 3.1 01:30:21 64° E 01:30:21 64° E 01:33:41 10° NE
USA 306 2.8 01:32:05 64° WSW 01:32:42 87° NW 01:36:58 10° NE
Cosmos 1842 Rocket 3.5 01:28:28 10° NNW 01:32:46 62° W 01:33:14 58° SW
Cosmos 921 Rocket 2.8 01:32:38 63° SW 01:33:10 75° WNW 01:37:23 10° NNE
NPP 3.8 01:28:29 10° NNE 01:33:52 68° ESE 01:35:57 38° S
ADEOS II 3.1 01:29:20 10° NNE 01:34:16 39° E 01:36:49 24° SSE
Cosmos 1943 3.8 01:33:25 32° WSW 01:35:31 46° WNW 01:40:58 10° NNE
Meteor 2-8 Rocket 4.4 01:30:12 10° NNW 01:36:19 72° W 01:38:53 37° S
Cosmos 2195 Rocket 4.5 01:34:59 35° S 01:37:52 83° E 01:44:11 10° N
MOZ.5/SAFIR/RUBIN 5/SL-8 4.0 01:38:06 46° SW 01:38:48 51° W 01:43:27 10° NNW
CZ-2D R/B 2.0 01:36:10 10° NNE 01:41:23 85° WNW 01:43:14 42° SSW
Cosmos 2151 3.1 01:44:56 44° SSE 01:46:06 68° E 01:50:17 10° NNE
Cosmos 1825 4.1 01:47:48 18° WNW 01:47:53 18° WNW 01:50:34 10° NNW
IDEFIX/ARIANE 42P 4.1 01:44:07 10° NE 01:48:35 28° E 01:52:17 13° SSE
Cosmos 1076 Rocket 3.6 01:49:45 48° WSW 01:50:33 57° W 01:54:45 10° N
AQUA 3.8 01:48:39 10° NNE 01:53:27 84° ESE 01:55:17 38° S
Cosmos 1437 3.2 01:53:45 10° NNW 01:55:51 43° NW 01:55:51 43° NW
Cosmos 1242 Rocket 3.4 01:56:57 10° NNW 02:00:05 34° W 02:00:05 34° W
DELTA 2 R/B (1) 3.4 01:57:42 23° WSW 02:01:12 73° S 02:06:44 10° E
X-37B 1.5 02:01:04 15° WNW 02:03:33 48° N 02:06:38 10° E
Cosmos 2221 3.7 02:01:24 10° NNW 02:04:55 25° W 02:05:13 25° W
BREEZE-M DEB (TANK) 4.3 02:04:04 10° NW 02:05:54 18° N 02:07:39 10° ENE
IRS-1D 3.8 02:03:10 10° NNE 02:08:16 61° ESE 02:11:14 24° S
NOSS 2-2 (E) 4.2 02:08:02 27° W 02:09:06 33° NW 02:12:30 10° NNE
Cosmos 1656 Rocket 4.5 02:05:19 10° NW 02:10:16 31° WSW 02:11:35 28° SW
Cosmos 2292 Rocket 2.8 02:09:52 50° SSE 02:10:28 66° E 02:13:24 10° NNE
Cosmos 1553 Rocket 4.2 02:05:38 10° N 02:11:55 71° E 02:17:51 11° SSE
GPS 2-04 Rocket1 3.3 02:15:42 35° S 02:15:44 35° S 02:19:18 10° ESE
USA 307 3.7 02:14:11 22° W 02:16:32 45° NNW 02:20:38 10° NE
USA 281 4.1 02:10:29 10° SE 02:16:47 51° ENE 02:23:07 10° NNW
Cosmos 1782 3.4 02:14:26 10° N 02:18:22 54° E 02:21:41 14° SSE
Cosmos 2026 Rocket 4.2 02:16:00 27° SW 02:19:22 56° W 02:25:37 10° N
Cosmos 1271 Rocket 4.2 02:16:46 10° N 02:20:13 34° ENE 02:23:40 10° SE
Cosmos 2369 Rocket 3.8 02:17:04 10° WNW 02:20:26 16° W 02:20:43 16° WSW
NOSS 2-2 (C) 4.3 02:21:26 23° W 02:22:47 31° NW 02:26:06 10° NNE
CZ-4C R/B 4.4 02:20:45 10° SE 02:23:59 38° ENE 02:27:12 10° N
ERBS 2.3 02:24:39 43° SSW 02:25:28 64° SE 02:28:40 10° NE
Aureole 3 Rocket 4.2 02:22:56 10° NNW 02:26:44 32° W 02:28:37 25° SW
Cosmos 1633 4.2 02:27:25 19° W 02:27:58 20° WNW 02:30:37 10° NNW
Helios 1B rocket 3.5 02:25:17 10° N 02:28:53 30° WNW 02:30:26 23° WSW
ATLAS 5 CENTAUR R/B 2.6 02:29:34 19° W 02:31:43 32° NW 02:35:41 10° NNE
Cosmos 1328 Rocket 4.2 02:28:06 10° N 02:32:23 54° E 02:36:41 10° SSE
USA 308 4.1 02:29:31 15° W 02:32:33 36° NNW 02:36:30 10° NE
Cosmos 2298 Rocket 4.0 02:29:56 10° NNW 02:35:15 71° WSW 02:40:32 10° S
SeaSat 1 2.9 02:32:45 10° NE 02:37:37 55° ESE 02:41:19 17° S
ADEOS Rocket 3.4 02:32:27 12° S 02:39:24 61° WSW 02:46:05 10° NNW
Meteor 2-21 4.4 02:36:14 18° SSW 02:40:54 77° W 02:47:07 10° N
Cosmos 1933 4.0 02:41:45 10° NNW 02:45:32 36° W 02:47:30 23° SW
Cosmos 1833 Rocket 4.0 02:40:58 10° SSE 02:45:59 34° ESE 02:51:02 10° NE
IRIDIUM 104 4.4 02:40:54 10° N 02:46:02 59° W 02:50:07 16° SSW
Cosmos 2150 Rocket 4.0 02:41:38 10° NNW 02:46:46 60° WSW 02:51:56 10° S
SL-16 R/B 3.5 02:44:57 19° SW 02:47:55 27° W 02:53:06 10° NW
Meteor 1-28 Rocket 3.4 02:45:49 20° S 02:48:14 52° W 02:51:57 10° NNW
DELTA 2 DEB (DPAF) 4.3 02:45:47 16° S 02:49:11 53° W 02:53:33 10° NNW
Tianhe-1 2.7 02:49:34 19° S 02:50:28 21° SSE 02:52:57 10° E
IRS-P3 4.3 02:47:35 10° NNE 02:52:55 73° ESE 02:58:06 11° S
Lacrosse 4 Rocket 2.2 02:50:53 10° NW 02:54:23 28° WSW 02:56:19 19° SSW
Cosmos 1125 Rocket 3.5 02:49:28 10° NNW 02:54:41 63° WSW 02:59:52 10° S
Cosmos 2266 Rocket 4.0 02:49:06 11° S 02:55:05 87° E 03:01:10 10° N
Cosmos 1151 Rocket 3.0 02:51:49 10° NNW 02:56:02 61° W 02:59:53 12° S
CZ-4C R/B 2.0 02:56:32 17° SSW 03:00:13 75° ESE 03:05:52 10° NE
CZ-4B R/B 3.9 02:55:27 10° NNE 03:00:42 64° ESE 03:05:50 10° S
ARIANE 5 R/B 2.7 02:56:50 10° NNE 03:01:50 69° ESE 03:06:49 10° S
Resurs 1-4 Rocket 4.0 02:58:37 10° NNW 03:01:55 17° WNW 03:05:12 10° W
Cosmos 1766 Rocket 4.0 02:59:08 18° SSW 03:02:14 46° WNW 03:06:34 10° N
Cosmos 1515 Rocket 4.0 02:59:08 10° N 03:03:33 67° E 03:07:58 10° SSE
Cosmos 1408 Rocket 3.6 03:00:36 11° S 03:04:50 89° W 03:09:20 10° N
SL-4 R/B 3.9 03:02:26 10° NW 03:05:32 27° NNE 03:08:31 10° E
Cosmos 2082 Rocket 4.0 03:04:24 10° SSE 03:08:56 26° ESE 03:13:28 10° NE
COSMOS 2441 4.3 03:05:01 10° NNE 03:09:52 84° WNW 03:14:40 10° SSW
CENTAUR R/B 4.1 03:02:58 10° NNW 03:11:00 56° NE 03:19:42 10° SE
Cosmos 1862 3.3 03:08:08 12° SSW 03:11:49 70° W 03:15:52 10° N
Okean 3 Rocket 4.3 03:09:58 15° SW 03:13:09 36° WNW 03:17:13 10° N
FALCON 9 DEB 4.0 03:10:33 10° WNW 03:13:29 27° SW 03:16:24 10° SSE
ADEOS II 3.3 03:09:23 10° N 03:13:45 27° WNW 03:17:45 11° WSW
Lacrosse 5 rocket 2.8 03:11:15 10° NNW 03:14:38 36° NE 03:18:07 10° ESE
CZ-2D R/B 4.2 03:18:56 10° NW 03:20:36 11° WNW 03:22:16 10° WNW
ASTEX 1 3.9 03:18:14 10° SSW 03:22:56 42° W 03:27:37 10° NNW
Cosmos 1655 Rocket 4.3 03:17:10 10° SSW 03:23:06 50° WNW 03:29:10 10° N
IDEFIX/ARIANE 42P 3.4 03:23:26 10° N 03:28:12 36° WNW 03:32:55 10° SW
COSMOS 2406 3.3 03:26:39 10° SSW 03:32:18 80° ESE 03:37:59 10° NNE
PAYLOAD A 4.2 03:33:08 10° NNE 03:38:13 80° ESE 03:43:27 10° S
CZ-2D R/B 3.5 03:35:38 10° N 03:39:46 63° WNW 03:43:46 10° SSW
Spot 4 Rocket 4.1 03:35:01 10° NNE 03:40:12 87° W 03:45:20 10° SSW
X-37B 0.8 03:37:08 10° WNW 03:40:13 50° SSW 03:43:17 10° SE
DELTA 2 R/B (1) 3.7 03:42:02 10° W 03:47:29 59° SSW 03:52:56 10° ESE
